Voltar ao catálogo

MIDAS 3

AtivoMilitarPO
NORAD 163·PAYLOAD·🇺🇸 United States

Lançado Jul 12, 1961 de Vandenberg Space Force Base

Loading…

Próximas Passagens (próximas 24 horas)

TLE

AtualizadoSource: Space-Track

Época: Sep 14, 2026, 06:10 UTC

1 00163U 61018A   26257.25750102 -.00000016  00000-0 -62959-2 0  9992
2 00163  91.1284 209.0873 0102929  58.1170 302.9670  8.91839431121952

Acompanhe MIDAS 3 em tempo real com AllMySat

Download on the App Store